"Time","Value","Approval","myLocation"
"2023-04-24 00:00",1.025,"Approved","OW495"
"2023-04-24 01:00",1.025,"Approved","OW495"
"2023-04-24 02:00",1.025,"Approved","OW495"
"2023-04-24 03:00",1.021,"Approved","OW495"
"2023-04-24 04:00",1.019,"Approved","OW495"
"2023-04-24 05:00",1.023,"Approved","OW495"
"2023-04-24 06:00",1.016,"Approved","OW495"
"2023-04-24 07:00",1.015,"Approved","OW495"
"2023-04-24 08:00",1.018,"Approved","OW495"
"2023-04-24 09:00",1.019,"Approved","OW495"
"2023-04-24 10:00",1.014,"Approved","OW495"
"2023-04-24 11:00",1.018,"Approved","OW495"
"2023-04-24 12:00",1.018,"Approved","OW495"
"2023-04-24 13:00",1.022,"Approved","OW495"
"2023-04-24 14:00",1.017,"Approved","OW495"
"2023-04-24 15:00",1.02,"Approved","OW495"
"2023-04-24 16:00",1.028,"Approved","OW495"
"2023-04-24 17:00",1.03,"Approved","OW495"
"2023-04-24 18:00",1.032,"Approved","OW495"
"2023-04-24 19:00",1.03,"Approved","OW495"
"2023-04-24 20:00",1.036,"Approved","OW495"
"2023-04-24 21:00",1.036,"Approved","OW495"
"2023-04-24 22:00",1.034,"Approved","OW495"
"2023-04-24 23:00",1.034,"Approved","OW495"
"2023-04-25 00:00",1.037,"Approved","OW495"
"2023-04-25 01:00",1.035,"Approved","OW495"
"2023-04-25 02:00",1.034,"Approved","OW495"
"2023-04-25 03:00",1.038,"Approved","OW495"
"2023-04-25 04:00",1.031,"Approved","OW495"
"2023-04-25 05:00",1.028,"Approved","OW495"
"2023-04-25 06:00",1.027,"Approved","OW495"
"2023-04-25 07:00",1.031,"Approved","OW495"
"2023-04-25 08:00",1.031,"Approved","OW495"
"2023-04-25 09:00",1.028,"Approved","OW495"
"2023-04-25 10:00",1.031,"Approved","OW495"
"2023-04-25 11:00",1.031,"Approved","OW495"
"2023-04-25 12:00",1.03,"Approved","OW495"
"2023-04-25 13:00",1.033,"Approved","OW495"
"2023-04-25 14:00",1.029,"Approved","OW495"
"2023-04-25 15:00",1.035,"Approved","OW495"
"2023-04-25 16:00",1.037,"Approved","OW495"
"2023-04-25 17:00",1.037,"Approved","OW495"
"2023-04-25 18:00",1.041,"Approved","OW495"
"2023-04-25 19:00",1.044,"Approved","OW495"
"2023-04-25 20:00",1.043,"Approved","OW495"
"2023-04-25 21:00",1.046,"Approved","OW495"
"2023-04-25 22:00",1.048,"Approved","OW495"
"2023-04-25 23:00",1.048,"Approved","OW495"
"2023-04-26 00:00",1.048,"Approved","OW495"
"2023-04-26 01:00",1.048,"Approved","OW495"
"2023-04-26 02:00",1.045,"Approved","OW495"
"2023-04-26 03:00",1.043,"Approved","OW495"
"2023-04-26 04:00",1.041,"Approved","OW495"
"2023-04-26 05:00",1.038,"Approved","OW495"
"2023-04-26 06:00",1.032,"Approved","OW495"
"2023-04-26 07:00",1.03,"Approved","OW495"
"2023-04-26 08:00",1.033,"Approved","OW495"
"2023-04-26 09:00",1.037,"Approved","OW495"
"2023-04-26 10:00",1.033,"Approved","OW495"
"2023-04-26 11:00",1.033,"Approved","OW495"
"2023-04-26 12:00",1.033,"Approved","OW495"
"2023-04-26 13:00",1.032,"Approved","OW495"
"2023-04-26 14:00",1.032,"Approved","OW495"
"2023-04-26 15:00",1.034,"Approved","OW495"
"2023-04-26 16:00",1.033,"Approved","OW495"
"2023-04-26 17:00",1.035,"Approved","OW495"
"2023-04-26 18:00",1.036,"Approved","OW495"
"2023-04-26 19:00",1.041,"Approved","OW495"
"2023-04-26 20:00",1.045,"Approved","OW495"
"2023-04-26 21:00",1.049,"Approved","OW495"
"2023-04-26 22:00",1.05,"Approved","OW495"
"2023-04-26 23:00",1.047,"Approved","OW495"
"2023-04-27 00:00",1.055,"Approved","OW495"
"2023-04-27 01:00",1.054,"Approved","OW495"
"2023-04-27 02:00",1.046,"Approved","OW495"
"2023-04-27 03:00",1.05,"Approved","OW495"
"2023-04-27 04:00",1.049,"Approved","OW495"
"2023-04-27 05:00",1.045,"Approved","OW495"
"2023-04-27 06:00",1.047,"Approved","OW495"
"2023-04-27 07:00",1.048,"Approved","OW495"
"2023-04-27 08:00",1.049,"Approved","OW495"
"2023-04-27 09:00",1.049,"Approved","OW495"
"2023-04-27 10:00",1.049,"Approved","OW495"
"2023-04-27 11:00",1.048,"Approved","OW495"
"2023-04-27 12:00",1.046,"Approved","OW495"
"2023-04-27 13:00",1.045,"Approved","OW495"
"2023-04-27 14:00",1.044,"Approved","OW495"
"2023-04-27 15:00",1.046,"Approved","OW495"
"2023-04-27 16:00",1.042,"Approved","OW495"
"2023-04-27 17:00",1.044,"Approved","OW495"
"2023-04-27 18:00",1.048,"Approved","OW495"
"2023-04-27 19:00",1.051,"Approved","OW495"
"2023-04-27 20:00",1.052,"Approved","OW495"
"2023-04-27 21:00",1.055,"Approved","OW495"
"2023-04-27 22:00",1.059,"Approved","OW495"
"2023-04-27 23:00",1.059,"Approved","OW495"
"2023-04-28 00:00",1.056,"Approved","OW495"
"2023-04-28 01:00",1.057,"Approved","OW495"
"2023-04-28 02:00",1.06,"Approved","OW495"
"2023-04-28 03:00",1.055,"Approved","OW495"
"2023-04-28 04:00",1.057,"Approved","OW495"
"2023-04-28 05:00",1.053,"Approved","OW495"
"2023-04-28 06:00",1.048,"Approved","OW495"
"2023-04-28 07:00",1.048,"Approved","OW495"
"2023-04-28 08:00",1.051,"Approved","OW495"
"2023-04-28 09:00",1.053,"Approved","OW495"
"2023-04-28 10:00",1.051,"Approved","OW495"
"2023-04-28 11:00",1.051,"Approved","OW495"
"2023-04-28 12:00",1.049,"Approved","OW495"
"2023-04-28 13:00",1.049,"Approved","OW495"
"2023-04-28 14:00",1.044,"Approved","OW495"
"2023-04-28 15:00",1.043,"Approved","OW495"
"2023-04-28 16:00",1.04,"Approved","OW495"
"2023-04-28 17:00",1.041,"Approved","OW495"
"2023-04-28 18:00",1.038,"Approved","OW495"
"2023-04-28 19:00",1.038,"Approved","OW495"
"2023-04-28 20:00",1.043,"Approved","OW495"
"2023-04-28 21:00",1.042,"Approved","OW495"
"2023-04-28 22:00",1.047,"Approved","OW495"
"2023-04-28 23:00",1.053,"Approved","OW495"
"2023-04-29 00:00",1.052,"Approved","OW495"
"2023-04-29 01:00",1.055,"Approved","OW495"
"2023-04-29 02:00",1.053,"Approved","OW495"
"2023-04-29 03:00",1.051,"Approved","OW495"
"2023-04-29 04:00",1.053,"Approved","OW495"
"2023-04-29 05:00",1.051,"Approved","OW495"
"2023-04-29 06:00",1.05,"Approved","OW495"
"2023-04-29 07:00",1.048,"Approved","OW495"
"2023-04-29 08:00",1.049,"Approved","OW495"
"2023-04-29 09:00",1.053,"Approved","OW495"
"2023-04-29 10:00",1.055,"Approved","OW495"
"2023-04-29 11:00",1.056,"Approved","OW495"
"2023-04-29 12:00",1.059,"Approved","OW495"
"2023-04-29 13:00",1.056,"Approved","OW495"
"2023-04-29 14:00",1.061,"Approved","OW495"
"2023-04-29 15:00",1.057,"Approved","OW495"
"2023-04-29 16:00",1.052,"Approved","OW495"
"2023-04-29 17:00",1.05,"Approved","OW495"
"2023-04-29 18:00",1.047,"Approved","OW495"
"2023-04-29 19:00",1.055,"Approved","OW495"
"2023-04-29 20:00",1.053,"Approved","OW495"
"2023-04-29 21:00",1.058,"Approved","OW495"
"2023-04-29 22:00",1.06,"Approved","OW495"
"2023-04-29 23:00",1.062,"Approved","OW495"
"2023-04-30 00:00",1.067,"Approved","OW495"
"2023-04-30 01:00",1.068,"Approved","OW495"
"2023-04-30 02:00",1.068,"Approved","OW495"
"2023-04-30 03:00",1.066,"Approved","OW495"
"2023-04-30 04:00",1.064,"Approved","OW495"
"2023-04-30 05:00",1.062,"Approved","OW495"
"2023-04-30 06:00",1.063,"Approved","OW495"
"2023-04-30 07:00",1.064,"Approved","OW495"
"2023-04-30 08:00",1.063,"Approved","OW495"
"2023-04-30 09:00",1.067,"Approved","OW495"
"2023-04-30 10:00",1.074,"Approved","OW495"
"2023-04-30 11:00",1.075,"Approved","OW495"
"2023-04-30 12:00",1.073,"Approved","OW495"
"2023-04-30 13:00",1.073,"Approved","OW495"
"2023-04-30 14:00",1.076,"Approved","OW495"
"2023-04-30 15:00",1.073,"Approved","OW495"
"2023-04-30 16:00",1.072,"Approved","OW495"
"2023-04-30 17:00",1.066,"Approved","OW495"
"2023-04-30 18:00",1.068,"Approved","OW495"
"2023-04-30 19:00",1.073,"Approved","OW495"
"2023-04-30 20:00",1.067,"Approved","OW495"
"2023-04-30 21:00",1.073,"Approved","OW495"
"2023-04-30 22:00",1.078,"Approved","OW495"
"2023-04-30 23:00",1.082,"Approved","OW495"
"2023-05-01 00:00",1.087,"Approved","OW495"
"2023-05-01 01:00",1.089,"Approved","OW495"
"2023-05-01 02:00",1.084,"Approved","OW495"
"2023-05-01 03:00",1.087,"Approved","OW495"
"2023-05-01 04:00",1.088,"Approved","OW495"
"2023-05-01 05:00",1.086,"Approved","OW495"
"2023-05-01 06:00",1.086,"Approved","OW495"
"2023-05-01 07:00",1.087,"Approved","OW495"
"2023-05-01 08:00",1.087,"Approved","OW495"
"2023-05-01 09:00",1.084,"Approved","OW495"
"2023-05-01 10:00",1.088,"Approved","OW495"
"2023-05-01 11:00",1.093,"Approved","OW495"
"2023-05-01 12:00",1.093,"Approved","OW495"
"2023-05-01 13:00",1.092,"Approved","OW495"
"2023-05-01 14:00",1.095,"Approved","OW495"
"2023-05-01 15:00",1.094,"Approved","OW495"
"2023-05-01 16:00",1.086,"Approved","OW495"
"2023-05-01 17:00",1.087,"Approved","OW495"
"2023-05-01 18:00",1.086,"Approved","OW495"
"2023-05-01 19:00",1.085,"Approved","OW495"
"2023-05-01 20:00",1.084,"Approved","OW495"
"2023-05-01 21:00",1.087,"Approved","OW495"
"2023-05-01 22:00",1.094,"Approved","OW495"
"2023-05-01 23:00",1.094,"Approved","OW495"
"2023-05-02 00:00",1.1,"Approved","OW495"
"2023-05-02 01:00",1.1,"Approved","OW495"
"2023-05-02 02:00",1.105,"Approved","OW495"
"2023-05-02 03:00",1.105,"Approved","OW495"
"2023-05-02 04:00",1.102,"Approved","OW495"
"2023-05-02 05:00",1.1,"Approved","OW495"
"2023-05-02 06:00",1.099,"Approved","OW495"
"2023-05-02 07:00",1.097,"Approved","OW495"
"2023-05-02 08:00",1.098,"Approved","OW495"
"2023-05-02 09:00",1.103,"Approved","OW495"
"2023-05-02 10:00",1.104,"Approved","OW495"
"2023-05-02 11:00",1.108,"Approved","OW495"
"2023-05-02 12:00",1.11,"Approved","OW495"
"2023-05-02 13:00",1.109,"Approved","OW495"
"2023-05-02 14:00",1.108,"Approved","OW495"
"2023-05-02 15:00",1.106,"Approved","OW495"
"2023-05-02 16:00",1.102,"Approved","OW495"
"2023-05-02 17:00",1.101,"Approved","OW495"
"2023-05-02 18:00",1.096,"Approved","OW495"
"2023-05-02 19:00",1.093,"Approved","OW495"
"2023-05-02 20:00",1.093,"Approved","OW495"
"2023-05-02 21:00",1.102,"Approved","OW495"
"2023-05-02 22:00",1.104,"Approved","OW495"
"2023-05-02 23:00",1.109,"Approved","OW495"
"2023-05-03 00:00",1.114,"Approved","OW495"
"2023-05-03 01:00",1.118,"Approved","OW495"
"2023-05-03 02:00",1.122,"Approved","OW495"
"2023-05-03 03:00",1.122,"Approved","OW495"
"2023-05-03 04:00",1.123,"Approved","OW495"
"2023-05-03 05:00",1.125,"Approved","OW495"
"2023-05-03 06:00",1.123,"Approved","OW495"
"2023-05-03 07:00",1.122,"Approved","OW495"
"2023-05-03 08:00",1.125,"Approved","OW495"
"2023-05-03 09:00",1.127,"Approved","OW495"
"2023-05-03 10:00",1.133,"Approved","OW495"
"2023-05-03 11:00",1.133,"Approved","OW495"
"2023-05-03 12:00",1.138,"Approved","OW495"
"2023-05-03 13:00",1.139,"Approved","OW495"
"2023-05-03 14:00",1.14,"Approved","OW495"
"2023-05-03 15:00",1.141,"Approved","OW495"
"2023-05-03 16:00",1.133,"Approved","OW495"
"2023-05-03 17:00",1.129,"Approved","OW495"
"2023-05-03 18:00",1.127,"Approved","OW495"
"2023-05-03 19:00",1.123,"Approved","OW495"
"2023-05-03 20:00",1.123,"Approved","OW495"
"2023-05-03 21:00",1.122,"Approved","OW495"
"2023-05-03 22:00",1.12,"Approved","OW495"
"2023-05-03 23:00",1.126,"Approved","OW495"
"2023-05-04 00:00",1.132,"Approved","OW495"
"2023-05-04 01:00",1.136,"Approved","OW495"
"2023-05-04 02:00",1.135,"Approved","OW495"
"2023-05-04 03:00",1.139,"Approved","OW495"
"2023-05-04 04:00",1.139,"Approved","OW495"
"2023-05-04 05:00",1.14,"Approved","OW495"
"2023-05-04 06:00",1.139,"Approved","OW495"
"2023-05-04 07:00",1.137,"Approved","OW495"
"2023-05-04 08:00",1.143,"Approved","OW495"
"2023-05-04 09:00",1.142,"Approved","OW495"
"2023-05-04 10:00",1.144,"Approved","OW495"
"2023-05-04 11:00",1.146,"Approved","OW495"
"2023-05-04 12:00",1.151,"Approved","OW495"
"2023-05-04 13:00",1.157,"Approved","OW495"
"2023-05-04 14:00",1.157,"Approved","OW495"
"2023-05-04 15:00",1.157,"Approved","OW495"
"2023-05-04 16:00",1.154,"Approved","OW495"
"2023-05-04 17:00",1.147,"Approved","OW495"
"2023-05-04 18:00",1.145,"Approved","OW495"
"2023-05-04 19:00",1.14,"Approved","OW495"
"2023-05-04 20:00",1.142,"Approved","OW495"
"2023-05-04 21:00",1.143,"Approved","OW495"
"2023-05-04 22:00",1.145,"Approved","OW495"
"2023-05-04 23:00",1.146,"Approved","OW495"
"2023-05-05 00:00",1.149,"Approved","OW495"
"2023-05-05 01:00",1.154,"Approved","OW495"
"2023-05-05 02:00",1.157,"Approved","OW495"
"2023-05-05 03:00",1.157,"Approved","OW495"
"2023-05-05 04:00",1.157,"Approved","OW495"
"2023-05-05 05:00",1.156,"Approved","OW495"
"2023-05-05 06:00",1.154,"Approved","OW495"
"2023-05-05 07:00",1.147,"Approved","OW495"
"2023-05-05 08:00",1.15,"Approved","OW495"
"2023-05-05 09:00",1.151,"Approved","OW495"
"2023-05-05 10:00",1.156,"Approved","OW495"
"2023-05-05 11:00",1.158,"Approved","OW495"
"2023-05-05 12:00",1.165,"Approved","OW495"
"2023-05-05 13:00",1.167,"Approved","OW495"
"2023-05-05 14:00",1.173,"Approved","OW495"
"2023-05-05 15:00",1.172,"Approved","OW495"
"2023-05-05 16:00",1.174,"Approved","OW495"
"2023-05-05 17:00",1.168,"Approved","OW495"
"2023-05-05 18:00",1.166,"Approved","OW495"
"2023-05-05 19:00",1.166,"Approved","OW495"
"2023-05-05 20:00",1.163,"Approved","OW495"
"2023-05-05 21:00",1.159,"Approved","OW495"
"2023-05-05 22:00",1.158,"Approved","OW495"
"2023-05-05 23:00",1.162,"Approved","OW495"
"2023-05-06 00:00",1.162,"Approved","OW495"
"2023-05-06 01:00",1.162,"Approved","OW495"
"2023-05-06 02:00",1.166,"Approved","OW495"
"2023-05-06 03:00",1.169,"Approved","OW495"
"2023-05-06 04:00",1.168,"Approved","OW495"
"2023-05-06 05:00",1.165,"Approved","OW495"
"2023-05-06 06:00",1.162,"Approved","OW495"
"2023-05-06 07:00",1.162,"Approved","OW495"
"2023-05-06 08:00",1.162,"Approved","OW495"
"2023-05-06 09:00",1.165,"Approved","OW495"
"2023-05-06 10:00",1.17,"Approved","OW495"
"2023-05-06 11:00",1.169,"Approved","OW495"
"2023-05-06 12:00",1.17,"Approved","OW495"
"2023-05-06 13:00",1.179,"Approved","OW495"
"2023-05-06 14:00",1.181,"Approved","OW495"
"2023-05-06 15:00",1.186,"Approved","OW495"
"2023-05-06 16:00",1.19,"Approved","OW495"
"2023-05-06 17:00",1.189,"Approved","OW495"
"2023-05-06 18:00",1.186,"Approved","OW495"
"2023-05-06 19:00",1.184,"Approved","OW495"
"2023-05-06 20:00",1.18,"Approved","OW495"
"2023-05-06 21:00",1.178,"Approved","OW495"
"2023-05-06 22:00",1.177,"Approved","OW495"
"2023-05-06 23:00",1.178,"Approved","OW495"
"2023-05-07 00:00",1.178,"Approved","OW495"
"2023-05-07 01:00",1.178,"Approved","OW495"
"2023-05-07 02:00",1.181,"Approved","OW495"
"2023-05-07 03:00",1.187,"Approved","OW495"
"2023-05-07 04:00",1.187,"Approved","OW495"
"2023-05-07 05:00",1.185,"Approved","OW495"
"2023-05-07 06:00",1.185,"Approved","OW495"
"2023-05-07 07:00",1.181,"Approved","OW495"
"2023-05-07 08:00",1.184,"Approved","OW495"
"2023-05-07 09:00",1.183,"Approved","OW495"
"2023-05-07 10:00",1.181,"Approved","OW495"
"2023-05-07 11:00",1.186,"Approved","OW495"
"2023-05-07 12:00",1.19,"Approved","OW495"
"2023-05-07 13:00",1.196,"Approved","OW495"
"2023-05-07 14:00",1.2,"Approved","OW495"
"2023-05-07 15:00",1.202,"Approved","OW495"
"2023-05-07 16:00",1.21,"Approved","OW495"
"2023-05-07 17:00",1.21,"Approved","OW495"
"2023-05-07 18:00",1.211,"Approved","OW495"
"2023-05-07 19:00",1.206,"Approved","OW495"
"2023-05-07 20:00",1.204,"Approved","OW495"
"2023-05-07 21:00",1.203,"Approved","OW495"
"2023-05-07 22:00",1.199,"Approved","OW495"
"2023-05-07 23:00",1.202,"Approved","OW495"
"2023-05-08 00:00",1.202,"Approved","OW495"
"2023-05-08 01:00",1.197,"Approved","OW495"
"2023-05-08 02:00",1.2,"Approved","OW495"
"2023-05-08 03:00",1.199,"Approved","OW495"
"2023-05-08 04:00",1.198,"Approved","OW495"
"2023-05-08 05:00",1.197,"Approved","OW495"
"2023-05-08 06:00",1.194,"Approved","OW495"
"2023-05-08 07:00",1.2,"Approved","OW495"
"2023-05-08 08:00",1.194,"Approved","OW495"
"2023-05-08 09:00",1.193,"Approved","OW495"
"2023-05-08 10:00",1.193,"Approved","OW495"
"2023-05-08 11:00",1.196,"Approved","OW495"
"2023-05-08 12:00",1.198,"Approved","OW495"
"2023-05-08 13:00",1.198,"Approved","OW495"
"2023-05-08 14:00",1.203,"Approved","OW495"
"2023-05-08 15:00",1.204,"Approved","OW495"
"2023-05-08 16:00",1.211,"Approved","OW495"
"2023-05-08 17:00",1.21,"Approved","OW495"
"2023-05-08 18:00",1.213,"Approved","OW495"
"2023-05-08 19:00",1.214,"Approved","OW495"
"2023-05-08 20:00",1.215,"Approved","OW495"
"2023-05-08 21:00",1.215,"Approved","OW495"
"2023-05-08 22:00",1.215,"Approved","OW495"
"2023-05-08 23:00",1.214,"Approved","OW495"
"2023-05-09 00:00",1.21,"Approved","OW495"
"2023-05-09 01:00",1.212,"Approved","OW495"
"2023-05-09 02:00",1.213,"Approved","OW495"
"2023-05-09 03:00",1.21,"Approved","OW495"
"2023-05-09 04:00",1.21,"Approved","OW495"
"2023-05-09 05:00",1.213,"Approved","OW495"
"2023-05-09 06:00",1.211,"Approved","OW495"
"2023-05-09 07:00",1.212,"Approved","OW495"
"2023-05-09 08:00",1.212,"Approved","OW495"
"2023-05-09 09:00",1.211,"Approved","OW495"
"2023-05-09 10:00",1.213,"Approved","OW495"
"2023-05-09 11:00",1.213,"Approved","OW495"
"2023-05-09 12:00",1.216,"Approved","OW495"
"2023-05-09 13:00",1.216,"Approved","OW495"
"2023-05-09 14:00",1.222,"Approved","OW495"
"2023-05-09 15:00",1.224,"Approved","OW495"
"2023-05-09 16:00",1.227,"Approved","OW495"
"2023-05-09 17:00",1.233,"Approved","OW495"
"2023-05-09 18:00",1.236,"Approved","OW495"
"2023-05-09 19:00",1.238,"Approved","OW495"
"2023-05-09 20:00",1.242,"Approved","OW495"
"2023-05-09 21:00",1.244,"Approved","OW495"
"2023-05-09 22:00",1.241,"Approved","OW495"
"2023-05-09 23:00",1.24,"Approved","OW495"
"2023-05-10 00:00",1.24,"Approved","OW495"
"2023-05-10 01:00",1.235,"Approved","OW495"
"2023-05-10 02:00",1.233,"Approved","OW495"
"2023-05-10 03:00",1.23,"Approved","OW495"
"2023-05-10 04:00",1.234,"Approved","OW495"
"2023-05-10 05:00",1.233,"Approved","OW495"
"2023-05-10 06:00",1.231,"Approved","OW495"
"2023-05-10 07:00",1.229,"Approved","OW495"
"2023-05-10 08:00",1.23,"Approved","OW495"
"2023-05-10 09:00",1.23,"Approved","OW495"
"2023-05-10 10:00",1.224,"Approved","OW495"
"2023-05-10 11:00",1.23,"Approved","OW495"
"2023-05-10 12:00",1.224,"Approved","OW495"
"2023-05-10 13:00",1.229,"Approved","OW495"
"2023-05-10 14:00",1.228,"Approved","OW495"
"2023-05-10 15:00",1.229,"Approved","OW495"
"2023-05-10 16:00",1.234,"Approved","OW495"
"2023-05-10 17:00",1.239,"Approved","OW495"
"2023-05-10 18:00",1.24,"Approved","OW495"
"2023-05-10 19:00",1.246,"Approved","OW495"
"2023-05-10 20:00",1.249,"Approved","OW495"
"2023-05-10 21:00",1.25,"Approved","OW495"
"2023-05-10 22:00",1.253,"Approved","OW495"
"2023-05-10 23:00",1.25,"Approved","OW495"
"2023-05-11 00:00",1.246,"Approved","OW495"
"2023-05-11 01:00",1.248,"Approved","OW495"
"2023-05-11 02:00",1.247,"Approved","OW495"
"2023-05-11 03:00",1.244,"Approved","OW495"
"2023-05-11 04:00",1.244,"Approved","OW495"
"2023-05-11 05:00",1.244,"Approved","OW495"
"2023-05-11 06:00",1.243,"Approved","OW495"
"2023-05-11 07:00",1.242,"Approved","OW495"
"2023-05-11 08:00",1.246,"Approved","OW495"
"2023-05-11 09:00",1.252,"Approved","OW495"
"2023-05-11 10:00",1.243,"Approved","OW495"
"2023-05-11 11:00",1.252,"Approved","OW495"
"2023-05-11 12:00",1.249,"Approved","OW495"
"2023-05-11 13:00",1.245,"Approved","OW495"
"2023-05-11 14:00",1.245,"Approved","OW495"
"2023-05-11 15:00",1.243,"Approved","OW495"
"2023-05-11 16:00",1.243,"Approved","OW495"
"2023-05-11 17:00",1.248,"Approved","OW495"
"2023-05-11 18:00",1.254,"Approved","OW495"
"2023-05-11 19:00",1.259,"Approved","OW495"
"2023-05-11 20:00",1.259,"Approved","OW495"
"2023-05-11 21:00",1.266,"Approved","OW495"
"2023-05-11 22:00",1.27,"Approved","OW495"
"2023-05-11 23:00",1.272,"Approved","OW495"
"2023-05-12 00:00",1.27,"Approved","OW495"
"2023-05-12 01:00",1.273,"Approved","OW495"
"2023-05-12 02:00",1.266,"Approved","OW495"
"2023-05-12 03:00",1.267,"Approved","OW495"
"2023-05-12 04:00",1.261,"Approved","OW495"
"2023-05-12 05:00",1.262,"Approved","OW495"
"2023-05-12 06:00",1.261,"Approved","OW495"
"2023-05-12 07:00",1.265,"Approved","OW495"
"2023-05-12 08:00",1.265,"Approved","OW495"
"2023-05-12 09:00",1.267,"Approved","OW495"
"2023-05-12 10:00",1.27,"Approved","OW495"
"2023-05-12 11:00",1.269,"Approved","OW495"
"2023-05-12 12:00",1.267,"Approved","OW495"
"2023-05-12 13:00",1.265,"Approved","OW495"
"2023-05-12 14:00",1.267,"Approved","OW495"
"2023-05-12 15:00",1.266,"Approved","OW495"
"2023-05-12 16:00",1.269,"Approved","OW495"
"2023-05-12 17:00",1.268,"Approved","OW495"
"2023-05-12 18:00",1.27,"Approved","OW495"
"2023-05-12 19:00",1.273,"Approved","OW495"
"2023-05-12 20:00",1.279,"Approved","OW495"
"2023-05-12 21:00",1.284,"Approved","OW495"
"2023-05-12 22:00",1.283,"Approved","OW495"
"2023-05-12 23:00",1.287,"Approved","OW495"
"2023-05-13 00:00",1.289,"Approved","OW495"
"2023-05-13 01:00",1.286,"Approved","OW495"
"2023-05-13 02:00",1.289,"Approved","OW495"
"2023-05-13 03:00",1.284,"Approved","OW495"
"2023-05-13 04:00",1.285,"Approved","OW495"
"2023-05-13 05:00",1.284,"Approved","OW495"
"2023-05-13 06:00",1.28,"Approved","OW495"
"2023-05-13 07:00",1.283,"Approved","OW495"
"2023-05-13 08:00",1.285,"Approved","OW495"
"2023-05-13 09:00",1.287,"Approved","OW495"
"2023-05-13 10:00",1.29,"Approved","OW495"
"2023-05-13 11:00",1.29,"Approved","OW495"
"2023-05-13 12:00",1.289,"Approved","OW495"
"2023-05-13 13:00",1.289,"Approved","OW495"
"2023-05-13 14:00",1.287,"Approved","OW495"
"2023-05-13 15:00",1.284,"Approved","OW495"
"2023-05-13 16:00",1.278,"Approved","OW495"
"2023-05-13 17:00",1.279,"Approved","OW495"
"2023-05-13 18:00",1.276,"Approved","OW495"
"2023-05-13 19:00",1.284,"Approved","OW495"
"2023-05-13 20:00",1.282,"Approved","OW495"
"2023-05-13 21:00",1.287,"Approved","OW495"
"2023-05-13 22:00",1.293,"Approved","OW495"
"2023-05-13 23:00",1.296,"Approved","OW495"
"2023-05-14 00:00",1.3,"Approved","OW495"
"2023-05-14 01:00",1.298,"Approved","OW495"
"2023-05-14 02:00",1.296,"Approved","OW495"
"2023-05-14 03:00",1.296,"Approved","OW495"
"2023-05-14 04:00",1.295,"Approved","OW495"
"2023-05-14 05:00",1.292,"Approved","OW495"
"2023-05-14 06:00",1.295,"Approved","OW495"
"2023-05-14 07:00",1.294,"Approved","OW495"
"2023-05-14 08:00",1.295,"Approved","OW495"
"2023-05-14 09:00",1.295,"Approved","OW495"
"2023-05-14 10:00",1.298,"Approved","OW495"
"2023-05-14 11:00",1.298,"Approved","OW495"
"2023-05-14 12:00",1.303,"Approved","OW495"
"2023-05-14 13:00",1.299,"Approved","OW495"
"2023-05-14 14:00",1.295,"Approved","OW495"
"2023-05-14 15:00",1.292,"Approved","OW495"
"2023-05-14 16:00",1.288,"Approved","OW495"
"2023-05-14 17:00",1.284,"Approved","OW495"
"2023-05-14 18:00",1.284,"Approved","OW495"
"2023-05-14 19:00",1.282,"Approved","OW495"
"2023-05-14 20:00",1.288,"Approved","OW495"
"2023-05-14 21:00",1.287,"Approved","OW495"
"2023-05-14 22:00",1.291,"Approved","OW495"
"2023-05-14 23:00",1.294,"Approved","OW495"
"2023-05-15 00:00",1.3,"Approved","OW495"
"2023-05-15 01:00",1.301,"Approved","OW495"
"2023-05-15 02:00",1.297,"Approved","OW495"
"2023-05-15 03:00",1.299,"Approved","OW495"
"2023-05-15 04:00",1.295,"Approved","OW495"
"2023-05-15 05:00",1.298,"Approved","OW495"
"2023-05-15 06:00",1.298,"Approved","OW495"
"2023-05-15 07:00",1.295,"Approved","OW495"
"2023-05-15 08:00",1.298,"Approved","OW495"
"2023-05-15 09:00",1.299,"Approved","OW495"
"2023-05-15 10:00",1.301,"Approved","OW495"
"2023-05-15 11:00",1.304,"Approved","OW495"
"2023-05-15 12:00",1.307,"Approved","OW495"
"2023-05-15 13:00",1.307,"Approved","OW495"
"2023-05-15 14:00",1.309,"Approved","OW495"
"2023-05-15 15:00",1.304,"Approved","OW495"
"2023-05-15 16:00",1.3,"Approved","OW495"
"2023-05-15 17:00",1.293,"Approved","OW495"
"2023-05-15 18:00",1.292,"Approved","OW495"
"2023-05-15 19:00",1.29,"Approved","OW495"
"2023-05-15 20:00",1.293,"Approved","OW495"
"2023-05-15 21:00",1.293,"Approved","OW495"
"2023-05-15 22:00",1.298,"Approved","OW495"
"2023-05-15 23:00",1.304,"Approved","OW495"
"2023-05-16 00:00",1.309,"Approved","OW495"
"2023-05-16 01:00",1.31,"Approved","OW495"
"2023-05-16 02:00",1.314,"Approved","OW495"
"2023-05-16 03:00",1.317,"Approved","OW495"
"2023-05-16 04:00",1.313,"Approved","OW495"